RH
92 80 64 56 81 99 83 72 61 58 54 49 48 53 68 61 87 84 87 74 70 63 67 63 67 59 54 64 71 57 55 51 50 42 37 36 40 39 29 25 21 19 19 16 12 13 9
100 87 55 48 60 91 89 67 66 55 60 60 58 64 68 59 76 88 95 94 70 75 79 66 59 59 50 54 68 78 61 59 60 57 49 47 52 47 36 29 26 22 20 18 15 15 10
100 80 56 49 63 84 86 68 70 63 60 70 95 98 67 56 71 92 88 87 64 63 88 72 60 63 60 62 55 65 61 67 75 70 58 51 58 56 47 31 29 24 21 19 17 18 11
92 72 52 62 71 71 69 78 70 62 62 72 96 84 95 91 96 97 94 70 48 56 50 47 42 42 46 50 60 71 79 77 86 68 53 54 74 68 50 31 28 25 22 22 20 19 14
83 66 51 71 65 69 73 73 69 66 78 63 77 92 99 62 67 64 51 56 42 38 39 41 41 44 55 64 76 84 87 92 82 77 70 63 90 74 49 42 29 25 23 24 20 21 20
64 58 53 70 76 80 66 67 86 68 62 68 91 90 66 65 56 66 58 43 44 43 46 49 56 59 71 81 75 71 98 89 79 83 72 66 84 70 60 41 34 27 27 24 24 21 25
45 72 84 79 67 58 57 61 66 63 76 90 88 82 82 69 62 54 50 49 48 59 58 63 64 87 81 71 65 67 78 86 83 70 64 68 72 75 59 45 34 26 28 25 31 27 24
61 72 75 76 71 62 64 77 84 84 53 50 51 40 47 51 59 59 65 76 73 76 89 95 91 75 76 74 79 72 70 64 61 56 57 66 57 54 51 49 32 29 31 30 24 33 26
69 88 84 67 68 80 80 64 54 35 35 41 41 52 64 76 74 89 92 94 95 88 91 96 93 89 79 80 84 79 75 71 62 56 58 56 51 55 49 43 38 28 38 32 33 32 30
48 54 54 83 67 57 47 37 36 39 45 48 49 50 46 48 47 47 42 44 44 42 42 46 45 54 67 59 65 66 64 67 68 61 59 58 62 61 54 48 40 33 38 35 31 37 35
43 42 40 42 39 42 42 44 46 54 51 50 44 40 45 45 48 46 46 43 44 44 42 42 51 55 49 47 45 51 43 41 41 46 53 52 55 58 62 59 47 38 46 45 38 35 43
48 49 49 50 54 59 56 63 71 65 59 58 59 50 52 51 51 46 50 53 51 55 67 64 53 53 50 47 46 44 42 35 31 34 37 40 46 52 61 60 55 38 42 53 52 38 38
59 66 66 79 76 85 99 87 75 67 70 65 75 71 72 64 63 54 58 55 60 64 62 65 57 48 47 47 47 49 46 36 31 30 40 42 48 51 56 55 62 41 38 48 64 59 39
54 63 81 73 77 100 100 100 98 85 73 81 78 85 83 69 59 76 76 61 56 61 70 64 65 50 44 46 45 43 46 43 33 29 39 46 57 50 54 53 66 59 38 44 54 69 57
53 61 76 89 93 100 100 100 100 100 80 80 80 78 95 94 92 93 78 76 80 67 77 70 57 43 46 45 44 35 38 36 40 36 37 39 58 55 55 55 58 67 55 48 51 59 67
52 86 100 100 100 100 100 100 100 80 80 68 69 70 98 91 85 73 63 63 71 80 74 62 48 46 48 42 38 29 35 40 44 44 41 47 55 56 59 55 54 62 62 62 60 57 79
97 100 100 100 100 100 99 85 95 73 51 49 76 100 92 77 82 74 57 52 80 66 62 58 45 42 44 34 33 28 29 38 50 50 50 49 55 80 74 63 65 63 71 61 68 67 62
100 100 100 98 100 100 97 52 40 46 45 51 58 74 65 58 54 53 54 46 46 48 46 43 40 38 35 27 29 30 26 35 61 62 55 52 54 95 91 79 73 72 78 81 70 73 71
79 77 54 47 57 63 47 39 40 61 74 72 67 56 50 49 47 45 37 37 39 39 38 35 31 29 29 27 28 32 35 54 72 78 69 58 49 66 85 89 80 76 73 68 64 70 80
80 48 43 53 57 37 35 41 49 59 64 64 67 53 46 45 42 37 33 28 25 27 29 28 26 25 25 26 29 32 50 68 82 82 73 64 62 58 69 88 95 79 69 61 58 66 64
39 41 62 52 43 46 45 46 48 51 63 56 52 46 39 40 35 32 25 23 24 24 23 22 24 26 26 27 28 38 52 76 74 72 72 59 54 70 78 78 72 71 71 68 68 82 50
39 43 59 61 61 50 45 49 48 57 57 66 43 33 32 32 27 24 22 21 21 22 23 22 23 24 26 30 38 57 57 51 72 88 64 58 50 49 56 71 62 49 41 71 79 77 64
41 60 62 52 45 42 47 56 55 90 73 48 39 31 28 27 22 22 21 21 22 24 24 24 25 26 29 33 40 41 46 61 65 67 77 88 74 39 28 63 47 22 80 90 79 66 52
70 72 64 50 49 64 61 66 99 51 45 35 35 29 27 25 22 20 19 21 23 26 29 31 28 30 38 39 36 36 38 40 46 54 46 40 48 56 37 38 20 38 36 55 64 48 49
86 74 63 78 72 73 65 66 45 62 37 35 26 25 27 25 25 24 23 24 27 28 28 29 27 28 30 29 29 31 35 31 37 37 39 42 36 31 38 33 29 31 26 32 38 36 35
80 69 79 75 89 88 52 76 62 41 32 28 24 23 24 25 30 29 28 28 28 29 26 25 21 20 21 21 22 23 25 29 36 43 47 47 30 18 17 14 14 21 25 26 20 18 23
79 72 100 84 58 44 64 53 52 36 32 23 24 24 25 26 31 29 27 28 26 26 22 22 20 23 21 18 16 15 16 16 21 23 20 20 23 16 12 11 10 14 15 18 18 16 16
99 72 70 75 64 65 50 59 50 35 31 22 29 27 26 24 26 25 28 24 24 22 17 14 15 16 15 15 15 16 17 20 19 18 15 16 16 14 13 14 14 15 12 16 14 11 13
69 79 71 56 72 55 47 55 34 31 23 24 28 27 23 22 24 24 23 21 18 16 14 15 16 16 14 19 20 20 21 18 13 16 14 16 16 14 12 12 16 15 10 10 10 13 13
Wind_Speed
33 36 36 37 36 37 38 39 37 36 36 36 36 40 41 39 31 34 34 34 35 34 35 32 33 34 34 38 41 44 44 46 47 46 47 47 48 48 48 49 49 49 49 52 55 55 57
38 38 40 42 38 37 38 37 37 37 39 38 41 41 44 41 30 31 34 38 40 39 39 36 35 37 39 39 42 46 49 50 50 51 53 51 50 53 50 49 48 47 43 50 51 52 54
42 40 45 41 35 35 35 37 40 40 40 43 42 44 43 39 37 35 36 40 41 39 39 40 39 39 42 43 45 45 49 53 53 55 55 55 51 54 52 47 48 47 44 44 48 48 51
44 45 45 38 33 36 41 39 40 42 45 43 42 43 45 45 42 42 43 45 40 39 39 40 42 42 44 47 49 49 52 54 56 55 55 53 54 57 53 50 49 47 40 45 45 45 47
46 47 42 34 37 41 42 46 46 45 43 40 40 45 49 46 42 45 45 44 43 40 41 40 43 47 48 49 50 54 54 54 58 56 57 54 55 58 55 51 47 46 39 42 42 40 47
45 42 38 39 42 47 48 46 45 43 44 45 46 49 49 49 46 47 46 43 41 39 43 43 45 46 49 50 55 56 56 57 58 58 57 52 54 58 57 49 45 41 39 39 39 39 43
43 38 40 45 48 50 47 45 43 44 49 49 49 49 49 48 46 47 45 42 44 47 49 48 47 51 54 58 59 56 55 57 59 58 55 53 55 57 53 47 43 40 35 36 36 39 38
44 45 49 48 50 46 45 46 47 47 49 45 44 44 45 46 49 50 50 51 51 52 50 55 57 59 60 61 60 56 55 56 56 54 51 52 51 51 48 45 40 38 36 37 33 33 38
49 51 51 47 44 46 47 44 43 44 46 47 48 48 48 49 50 51 53 54 54 55 55 60 61 61 61 61 61 61 62 61 60 56 53 53 50 48 44 42 41 35 34 33 32 35 35
44 41 41 41 43 44 44 47 48 52 52 50 47 50 51 51 51 53 55 55 54 54 50 56 58 58 60 60 63 64 63 64 62 60 57 56 54 50 42 42 38 36 34 31 28 30 33
38 38 40 41 44 45 47 48 48 50 51 54 53 54 52 56 54 54 55 55 55 56 57 57 55 58 62 63 64 66 65 65 63 61 61 58 53 50 44 41 37 34 31 33 29 24 30
42 41 43 44 49 52 54 53 55 54 53 53 54 53 55 55 57 57 61 60 59 59 58 58 57 59 62 65 66 68 68 66 61 58 56 54 50 47 44 39 36 33 30 30 30 30 22
47 46 48 49 54 55 55 57 59 59 57 56 58 58 58 60 59 61 66 66 64 65 66 61 60 61 62 63 63 66 65 64 61 53 53 51 51 47 44 39 34 33 29 29 32 33 27
47 48 50 53 55 55 59 62 61 61 61 59 62 62 62 65 65 68 74 72 69 66 69 68 65 65 63 64 62 62 63 64 61 55 47 49 52 51 46 42 37 35 34 27 30 31 33
52 53 55 58 57 57 63 63 64 63 63 64 63 64 68 69 71 77 77 75 74 72 75 74 72 65 64 65 64 60 60 59 59 57 50 45 48 50 49 45 41 36 37 34 30 32 33
58 57 59 61 62 65 68 71 70 69 63 62 69 69 71 75 79 80 81 75 77 79 79 75 72 69 68 67 64 60 58 56 56 55 51 48 45 50 49 47 44 39 37 37 36 33 34
56 58 62 63 66 70 76 76 76 74 73 73 73 74 81 86 82 85 85 78 79 78 78 77 72 68 69 67 64 60 55 54 54 55 53 52 49 49 51 49 47 44 41 40 38 38 36
60 65 71 73 76 78 80 77 73 68 76 82 85 87 90 90 88 84 84 81 77 78 77 76 73 69 70 66 60 60 56 54 52 53 53 52 47 43 48 50 49 46 44 43 40 39 39
74 76 77 73 72 78 78 77 72 78 83 91 92 88 86 86 83 86 83 80 76 74 75 74 73 70 68 65 61 59 57 54 53 54 55 54 49 48 47 52 52 51 49 45 41 41 42
81 79 73 75 81 78 76 78 80 86 91 93 98 101 96 91 91 87 85 82 78 72 72 74 72 68 66 66 63 58 58 56 57 57 58 57 54 55 52 54 56 54 52 49 47 44 46
80 77 79 81 84 87 84 87 91 96 100 110 109 106 96 92 87 85 83 81 78 74 72 71 68 66 66 64 62 63 61 60 62 62 65 63 58 59 57 58 59 57 54 55 56 59 52
83 87 89 91 92 91 93 92 99 102 113 117 113 100 91 90 87 84 81 78 77 74 73 71 66 63 63 60 62 64 66 65 62 67 70 70 62 64 56 63 63 57 48 59 63 67 64
90 93 93 95 102 101 98 101 108 109 119 122 108 97 91 90 86 82 78 74 72 71 71 69 65 62 65 66 65 65 66 67 68 68 73 74 77 72 55 68 64 44 57 67 68 71 69
93 94 99 103 105 103 105 109 112 120 125 113 106 96 91 88 87 81 77 73 72 70 68 70 66 65 67 68 67 68 68 69 71 74 72 72 79 81 68 70 60 56 58 66 71 69 68
98 103 107 106 109 109 112 119 120 130 121 113 101 92 90 85 82 79 77 73 73 72 69 69 69 68 70 69 68 70 73 71 73 74 76 77 78 77 75 71 66 58 65 67 74 72 69
106 109 109 113 113 119 125 126 130 129 114 106 97 93 89 79 77 78 77 76 74 73 71 73 73 71 71 69 69 67 66 69 72 76 83 87 84 79 76 75 70 57 68 73 76 74 71
114 115 112 118 123 125 129 132 134 120 117 102 96 93 86 77 76 78 76 79 77 76 72 73 72 76 77 75 71 69 67 67 72 71 78 82 85 82 79 80 65 54 63 74 80 78 72
113 121 123 127 130 132 133 137 134 124 117 99 95 90 85 79 77 77 79 81 79 81 77 73 71 75 75 70 65 70 68 75 75 73 73 75 78 80 81 82 66 63 64 71 75 75 73
125 125 129 136 134 133 137 142 123 125 106 94 92 90 88 82 78 76 83 82 84 83 77 72 74 75 66 69 68 69 73 75 72 61 79 72 89 80 80 72 69 69 66 63 62 67 70
Wind_Direction
323 326 323 320 317 318 323 325 326 328 326 325 326 328 324 325 315 316 317 319 319 314 311 308 308 306 310 309 308 316 322 321 319 321 322 321 320 322 314 312 307 304 302 304 306 311 310
319 320 320 319 312 314 318 320 322 323 320 320 321 324 322 321 314 312 314 313 316 310 308 309 307 306 307 310 314 310 316 316 317 318 320 322 320 325 322 317 315 309 307 310 312 317 316
314 314 318 318 313 314 317 319 318 317 320 320 320 316 320 320 320 315 310 312 314 308 303 304 305 303 304 305 310 313 314 314 314 317 318 321 320 324 326 319 318 314 311 313 317 322 322
310 315 316 317 315 319 320 320 318 318 315 314 314 315 316 318 313 310 308 312 310 308 305 303 304 305 306 306 306 308 308 310 314 315 318 318 318 320 325 321 320 315 314 318 322 326 326
311 313 314 312 313 318 318 318 318 317 312 313 312 311 310 314 309 308 309 308 308 306 304 303 302 300 301 305 306 306 304 303 308 311 314 315 315 316 321 320 322 317 316 320 323 329 328
308 307 306 306 309 312 313 313 312 314 314 313 310 308 311 311 305 303 304 302 302 302 302 301 299 299 299 300 305 305 301 302 306 308 311 313 314 317 320 317 320 316 315 321 326 330 332
304 305 305 307 309 312 313 311 311 310 310 308 307 308 306 306 305 306 306 304 307 300 303 303 301 298 298 302 305 305 300 300 302 306 309 312 315 318 319 316 321 317 313 321 328 330 335
305 307 308 308 309 310 310 311 308 307 310 310 309 311 314 313 312 312 313 310 312 313 304 301 300 301 301 303 304 305 303 303 305 307 310 313 315 319 317 314 319 317 314 321 324 333 332
308 305 306 307 308 311 311 313 313 314 316 317 316 313 315 315 314 313 311 307 306 307 307 301 300 301 302 302 302 302 303 304 304 306 307 309 313 315 315 313 318 316 313 319 325 330 330
309 309 312 315 315 313 311 316 320 321 320 317 320 315 313 311 311 309 309 308 306 305 304 297 300 299 298 299 299 300 300 299 298 299 301 302 307 308 308 312 312 313 310 315 323 329 328
319 320 320 318 320 321 321 322 322 323 319 321 322 318 312 311 309 309 312 310 313 312 313 310 306 302 301 300 300 298 298 297 296 295 295 295 297 299 301 305 304 307 308 310 313 324 329
316 320 323 321 321 320 321 320 322 321 320 322 319 316 316 315 313 311 310 311 315 315 313 312 304 302 302 300 299 299 299 298 296 295 294 292 292 293 294 298 294 295 304 305 304 308 322
318 316 320 318 319 317 316 316 317 317 314 313 312 312 313 313 310 310 312 313 311 314 313 311 306 305 305 302 300 297 298 297 297 296 294 293 289 285 287 289 288 284 292 297 299 305 311
315 318 316 315 317 314 311 312 312 313 311 310 310 310 311 310 310 311 312 310 310 312 309 307 308 306 306 303 298 296 293 294 295 295 290 287 283 283 283 284 281 277 276 286 288 296 299
314 315 315 317 315 312 314 312 311 309 309 311 313 312 309 309 309 308 308 307 307 309 306 306 307 305 306 303 297 295 291 293 292 291 288 283 282 281 281 280 277 273 270 274 281 282 286
318 316 316 313 311 313 313 311 308 311 311 310 312 316 313 311 308 307 308 306 305 304 303 305 305 304 303 301 298 294 292 291 290 287 285 283 282 280 279 280 276 272 265 267 272 272 276
313 313 308 306 306 309 311 309 306 302 305 306 310 309 310 311 310 308 308 305 299 301 301 302 302 301 300 299 296 293 290 289 285 282 281 279 278 277 278 278 275 273 269 264 265 268 266
311 307 307 305 304 304 305 305 307 306 312 314 313 311 308 307 307 307 306 304 302 301 300 300 300 298 298 296 293 292 289 287 283 280 278 276 272 270 273 273 273 271 268 265 265 263 261
307 309 307 306 305 306 305 306 309 317 319 318 315 313 312 310 309 308 305 303 300 299 298 298 297 297 296 294 292 290 287 285 282 279 277 275 272 269 268 270 271 268 265 262 259 260 256
307 309 309 307 307 308 308 310 313 315 316 317 321 318 314 312 311 308 306 303 301 298 297 296 295 295 294 292 290 289 283 281 278 278 277 273 271 269 267 266 267 267 267 264 258 251 248
308 310 313 309 309 313 313 313 315 316 316 320 320 317 312 311 309 307 304 302 301 299 297 294 294 294 291 290 289 285 281 279 279 278 276 274 271 269 269 269 267 265 266 267 263 257 247
309 315 315 317 314 312 314 312 316 317 319 318 318 315 312 312 310 307 304 302 301 298 296 294 293 292 290 288 285 279 282 280 277 278 279 279 278 273 271 270 268 268 271 266 261 258 255
313 314 314 315 316 314 313 314 314 316 316 318 319 316 313 311 309 306 303 302 300 298 297 294 293 293 291 287 284 283 281 277 276 276 276 279 280 281 277 273 273 272 268 267 266 262 257
311 312 315 315 316 314 314 314 312 314 319 316 317 316 313 310 309 305 302 301 299 297 294 294 293 291 286 286 287 286 284 282 281 280 280 279 278 278 275 273 267 262 259 261 262 259 257
312 313 315 315 312 314 313 312 316 319 318 317 314 313 312 310 308 305 304 303 300 299 297 295 293 292 290 288 286 284 283 287 284 283 283 279 277 273 273 267 262 260 257 255 258 255 254
311 314 313 312 313 312 313 314 315 318 316 313 312 312 312 309 307 305 305 304 302 301 301 299 298 295 292 289 286 285 284 282 281 281 281 279 275 271 268 261 256 250 254 257 255 252 251
310 310 309 309 311 312 313 315 317 318 315 313 311 310 310 308 306 305 305 300 301 299 298 296 296 293 292 291 292 291 287 284 281 277 272 272 274 275 271 267 263 255 253 254 252 256 252
306 308 309 309 311 311 312 314 317 315 312 310 309 309 307 308 307 306 303 301 301 298 299 296 295 291 290 293 291 286 284 280 276 274 273 272 272 268 268 269 272 268 254 252 253 252 250
307 307 308 309 310 311 312 314 315 314 309 310 308 307 307 308 308 306 301 302 299 298 297 297 295 293 294 289 286 282 279 275 273 274 276 278 272 270 271 270 270 265 266 261 253 255 254